Date String (YYYY-MM-DD hh:mm:ss) UTC,Instrument flags,absolute air pressure of the measurement (hPa),sample flow rate (lpm),inlet stack bypass flow (lpm),air temperature of the measurement (°C),ambient temperature measured by the external sensor (°C),aerosol sample conditioner tube jacket temperature (°C),OPC LED temperature (°C),internal box temperature (°C),relative humidity of the measurement (%),span deviation,mass concentration of particles derived from Lorenz-Mie calculation of OPC scattering (μg/m³),mass concentration of particles derived from Lorenz-Mie calculation of OPC scattering (μg/m³),mass concentration of particles derived from Lorenz-Mie calculation of OPC scattering (μg/m³)
DateTimeUTC,F1_M11,P_M11,Q1_M11,Q2_M11,T1_M11,T2_M11,T3_M11,T4_M11,T5_M11,U1_M11,ZSPAN_M11,X0_M11,X2_M11,X1_M11
2023-06-23 14:00:00,SystemResetWarning,0829.3,5.00,000.00,030.1,026.0,000.0,038.8,031.2,32.2,0002.9,0010.64,0005.59,0005.05
2023-06-23 14:01:00,SystemResetWarning,0829.4,5.00,000.00,030.1,026.4,000.0,038.7,031.2,32.2,0002.7,0010.11,0005.63,0005.08
2023-06-23 14:02:00,SystemResetWarning,0829.4,4.99,000.00,030.1,026.8,000.0,038.7,031.3,33.2,0002.5,0010.21,0005.66,0005.09
2023-06-23 14:03:00,SystemResetWarning,0829.4,5.00,000.00,030.1,027.2,000.0,038.7,031.3,33.7,0002.5,0010.46,0005.67,0005.09
2023-06-23 14:04:00,SystemResetWarning,0829.3,5.00,000.00,030.1,027.4,000.0,038.7,031.4,33.7,0002.1,0010.42,0005.68,0005.10
2023-06-23 14:05:00,SystemResetWarning,0829.3,5.01,000.00,030.0,027.7,000.0,038.7,031.4,32.6,0001.9,0010.42,0005.70,0005.11
2023-06-23 14:06:00,SystemResetWarning,0829.3,5.01,000.00,030.1,027.8,000.0,038.7,031.4,32.0,0002.1,0010.37,0005.73,0005.11
2023-06-23 14:07:00,SystemResetWarning,0829.3,5.00,000.00,030.1,028.0,000.0,038.7,031.5,32.0,0001.5,0010.42,0005.77,0005.12
2023-06-23 14:08:00,SystemResetWarning,0829.3,5.00,000.00,030.1,028.1,000.0,038.7,031.5,32.0,0001.5,0009.80,0005.76,0005.13
2023-06-23 14:09:00,SystemResetWarning,0829.3,4.99,000.00,030.1,028.2,000.0,038.7,031.5,32.4,0001.5,0009.55,0005.75,0005.14
2023-06-23 14:10:00,SystemResetWarning,0829.4,5.00,000.00,030.1,028.3,000.0,038.7,031.5,32.6,0001.7,0009.46,0005.74,0005.15
2023-06-23 14:11:00,SystemResetWarning,0829.4,5.00,000.00,030.1,028.4,000.0,038.7,031.6,32.3,0001.6,0009.35,0005.72,0005.17
2023-06-23 14:12:00,SystemResetWarning,0829.4,5.00,000.00,030.1,028.5,000.0,038.7,031.6,32.4,0001.8,0009.69,0005.69,0005.16
2023-06-23 14:13:00,SystemResetWarning,0829.4,5.00,000.00,030.2,028.6,000.0,038.7,031.6,32.8,0002.2,0009.99,0005.71,0005.17
2023-06-23 14:14:00,SystemResetWarning,0829.4,5.00,000.00,030.2,028.6,000.0,038.7,031.7,33.1,0002.4,0009.69,0005.71,0005.19
2023-06-23 14:15:00,SystemResetWarning,0829.4,5.00,000.00,030.2,028.7,000.0,038.7,031.7,32.8,0002.8,0009.65,0005.73,0005.21
2023-06-23 14:16:00,SystemResetWarning,0829.4,5.01,000.00,030.2,028.7,000.0,038.7,031.7,32.3,0003.0,0009.61,0005.73,0005.23
2023-06-23 14:17:00,SystemResetWarning,0829.4,5.01,000.00,030.2,028.7,000.0,038.7,031.8,32.2,0002.9,0009.78,0005.75,0005.23
2023-06-23 14:18:00,SystemResetWarning,0829.3,4.99,000.00,030.3,028.8,000.0,038.8,031.8,32.4,0003.4,0010.10,0005.77,0005.25
2023-06-23 14:19:00,SystemResetWarning,0829.3,5.00,000.00,030.3,028.8,000.0,038.8,031.8,32.9,0003.6,0010.21,0005.78,0005.26
2023-06-23 14:20:00,SystemResetWarning,0829.3,4.99,000.00,030.3,027.5,000.0,038.7,031.9,32.5,0003.6,0010.24,0005.81,0005.29
2023-06-23 14:21:00,SystemResetWarning,0829.2,5.00,000.00,030.3,025.7,000.0,038.7,031.8,31.6,0003.6,0010.25,0005.82,0005.29
2023-06-23 14:22:00,SystemResetWarning,0829.2,5.00,000.00,030.3,025.2,000.0,038.6,031.7,31.9,0003.7,0010.30,0005.84,0005.30
2023-06-23 14:23:00,SystemResetWarning,0829.2,5.01,000.00,030.2,025.4,000.0,038.6,031.4,32.1,0003.6,0010.07,0005.84,0005.31
2023-06-23 14:24:00,SystemResetWarning,0829.1,5.01,000.00,030.1,025.8,000.0,038.6,031.2,32.4,0003.4,0009.64,0005.83,0005.31
2023-06-23 14:25:00,SystemResetWarning,0829.1,5.00,000.00,030.0,026.3,000.0,038.6,031.2,33.2,0003.3,0009.59,0005.83,0005.32
2023-06-23 14:26:00,SystemResetWarning,0829.1,5.00,000.00,030.0,026.7,000.0,038.6,031.2,34.0,0002.8,0010.35,0005.86,0005.32
2023-06-23 14:27:00,SystemResetWarning,0829.1,4.99,000.00,030.0,027.0,000.0,038.6,031.2,34.0,0002.5,0010.45,0005.88,0005.33
2023-06-23 14:28:00,SystemResetWarning,0829.1,4.99,000.00,030.0,027.3,000.0,038.6,031.3,33.6,0002.5,0010.49,0005.91,0005.35
2023-06-23 14:29:00,SystemResetWarning,0829.1,5.00,000.00,030.0,027.6,000.0,038.6,031.3,33.5,0002.4,0010.14,0005.93,0005.38
2023-06-23 14:30:00,SystemResetWarning,0829.1,5.01,000.00,030.0,027.8,000.0,038.6,031.4,33.8,0002.1,0010.04,0005.98,0005.41
2023-06-23 14:31:00,SystemResetWarning,0829.1,5.01,000.00,030.0,027.9,000.0,038.6,031.4,34.1,0001.8,0010.21,0006.00,0005.42
2023-06-23 14:32:00,SystemResetWarning,0829.1,5.01,000.00,030.0,028.1,000.0,038.6,031.4,33.4,0001.3,0010.54,0006.07,0005.45
2023-06-23 14:33:00,SystemResetWarning,0829.1,5.00,000.00,030.0,028.2,000.0,038.6,031.5,33.0,0000.9,0010.81,0006.13,0005.47
2023-06-23 14:34:00,SystemResetWarning,0829.1,5.00,000.00,030.0,028.3,000.0,038.6,031.5,33.1,0000.7,0011.03,0006.16,0005.49
2023-06-23 14:35:00,SystemResetWarning,0829.1,5.00,000.00,030.0,028.4,000.0,038.6,031.5,33.3,0000.7,0011.22,0006.19,0005.51
2023-06-23 14:36:00,SystemResetWarning,0829.1,5.01,000.00,030.1,028.5,000.0,038.6,031.5,33.5,0000.1,0011.54,0006.17,0005.52
2023-06-23 14:37:00,SystemResetWarning,0829.1,5.00,000.00,030.1,028.5,000.0,038.6,031.6,33.4,-000.1,0011.19,0006.16,0005.53
2023-06-23 14:38:00,SystemResetWarning,0829.1,5.00,000.00,030.1,028.6,000.0,038.6,031.6,33.6,-000.3,0011.15,0006.16,0005.54
2023-06-23 14:39:00,SystemResetWarning,0829.1,4.99,000.00,030.1,028.6,000.0,038.6,031.6,33.5,-000.3,0011.10,0006.15,0005.54
2023-06-23 14:40:00,SystemResetWarning,0829.1,4.99,000.00,030.2,028.6,000.0,038.6,031.7,34.1,-000.3,0011.12,0006.14,0005.53
2023-06-23 14:41:00,SystemResetWarning,0829.1,4.99,000.00,030.2,027.1,000.0,038.6,031.7,33.4,0000.1,0011.20,0006.14,0005.52
2023-06-23 14:42:00,SystemResetWarning,0829.1,5.01,000.00,030.2,025.5,000.0,038.5,031.7,33.5,0000.4,0011.28,0006.13,0005.52
2023-06-23 14:43:00,SystemResetWarning,0829.0,5.01,000.00,030.1,025.2,000.0,038.5,031.6,34.2,0000.9,0011.22,0006.09,0005.52
2023-06-23 14:44:00,SystemResetWarning,0829.0,5.01,000.00,030.0,025.5,000.0,038.5,031.2,34.5,0001.2,0010.99,0006.04,0005.52
2023-06-23 14:45:00,SystemResetWarning,0828.9,4.97,000.00,029.9,025.9,000.0,038.5,031.2,35.0,0001.3,0010.85,0006.03,0005.51
2023-06-23 14:46:00,SystemResetWarning,0829.0,5.02,000.00,030.0,026.4,000.0,038.5,031.3,35.6,0001.9,0010.77,0006.04,0005.52
2023-06-23 14:47:00,SystemResetWarning,0829.0,5.01,000.00,030.2,026.8,000.0,038.5,031.4,34.9,0002.1,0010.57,0006.07,0005.52
2023-06-23 14:48:00,SystemResetWarning,0828.9,4.97,000.00,030.5,027.1,000.0,038.5,031.5,33.6,0002.3,0010.21,0006.10,0005.53
2023-06-23 14:49:00,SystemResetWarning,0828.9,5.01,000.00,030.6,027.4,000.0,038.5,031.5,33.9,0002.5,0010.11,0006.11,0005.55
2023-06-23 14:50:00,SystemResetWarning,0828.9,5.00,000.00,030.7,027.6,000.0,038.6,031.5,33.7,0002.5,0010.11,0006.12,0005.55
2023-06-23 14:51:00,SystemResetWarning,0829.0,5.00,000.00,030.8,027.8,000.0,038.7,031.5,32.9,0002.5,0010.09,0006.14,0005.56
2023-06-23 14:52:00,SystemResetWarning,0829.0,4.99,000.00,030.8,028.0,000.0,038.7,031.5,32.5,0002.8,0009.89,0006.13,0005.56
2023-06-23 14:53:00,SystemResetWarning,0829.0,4.99,000.00,030.9,028.1,000.0,038.8,031.6,32.9,0002.7,0009.87,0006.14,0005.54
2023-06-23 14:54:00,SystemResetWarning,0829.0,5.00,000.00,030.9,028.3,000.0,038.9,031.6,32.9,0002.7,0009.69,0006.16,0005.53
2023-06-23 14:55:00,SystemResetWarning,0829.0,5.01,000.00,030.9,028.4,000.0,038.9,031.7,32.8,0002.6,0009.75,0006.21,0005.53
2023-06-23 14:56:00,SystemResetWarning,0829.0,5.01,000.00,030.9,028.5,000.0,039.0,031.7,33.5,0002.6,0009.64,0006.20,0005.53
2023-06-23 14:57:00,SystemResetWarning,0829.0,5.01,000.00,031.0,028.5,000.0,039.0,031.7,33.3,0002.1,0009.63,0006.20,0005.53
2023-06-23 14:58:00,SystemResetWarning,0828.9,5.00,000.00,031.0,028.6,000.0,039.1,031.8,33.2,0002.3,0009.55,0006.19,0005.54
2023-06-23 14:59:00,SystemResetWarning,0828.9,4.98,000.00,031.0,027.3,000.0,039.0,031.9,33.5,0002.4,0009.56,0006.22,0005.54
